Weather History for Redmond, OR

Change the Weather History Date:

Sunday, January 15, 2012

  Actual Average Record
Temperature  
Mean Temperature 24 °F 33 °F  
Max Temperature 34 °F 42 °F 59 °F (2010)
Min Temperature 14 °F 23 °F -5 °F (1993)
Degree Days  
Heating Degree Days 41 32  
Month to date heating degree days 465 497  
Since 1 July heating degree days 3159 3337  
Cooling Degree Days 0 0  
Month to date cooling degree days 0 0  
Year to date cooling degree days 0 0  
Moisture  
Dew Point 15 °F    
Average Humidity 61    
Maximum Humidity 84    
Minimum Humidity 38    
Precipitation  
Precipitation T in 0.03 in 0.35 in (1956)
Month to date precipitation 0.01 0.52  
Year to date precipitation 0.01 0.52  
Sea Level Pressure  
Sea Level Pressure 29.98 in    
Wind  
Wind Speed 6 mph (WSW)    
Max Wind Speed 22 mph    
Max Gust Speed 28 mph    
Visibility 10 miles    
Events      
T = Trace of Precipitation, MM = Missing Value Source: NWS Daily Summary

Daily Weather History Graph

Daily Weather History Graph

Search for Another Location

Airport:

Trip Planner

Search our weather history database for the weather conditions in past years. The results will help you decide how hot, cold, wet, or windy it might be!

Date:

Astronomy

Jan. 15, 2012 Rise Set
Actual Time 7:37 AM PST 4:51 PM PST
Civil Twilight 7:04 AM PST 5:23 PM PST
Nautical Twilight 6:28 AM PST 5:59 PM PST
Astronomical Twilight 5:54 AM PST 6:34 PM PST
Moon No Moon Rise 10:39 AM PST (1/15)
Length of Visible Light 10h 18m
Length of Day
9h 14m
Waning Gibbous, 56% of the Moon is Illuminated
Jan 15
Waning Gibbous
Jan 16
Last Quarter
Jan 22
New
Jan 30
First Quarter
Feb 7
Full

Hourly Weather History & Observations

Time (PST) Temp. Windchill Dew Point Humidity Pressure Visibility Wind Dir Wind Speed Gust Speed Precip Events Conditions
12:56 AM 28.0 °F 24.2 °F 18.0 °F 66% 29.95 in 10.0 mi NNW 3.5 mph - N/A   Overcast
1:56 AM 28.0 °F 21.7 °F 16.0 °F 61% 29.94 in 10.0 mi SSW 5.8 mph - N/A   Scattered Clouds
2:56 AM 21.0 °F 13.4 °F 15.1 °F 78% 29.97 in 10.0 mi SSE 5.8 mph - N/A   Partly Cloudy
3:56 AM 24.1 °F 19.7 °F 17.1 °F 75% 29.97 in 10.0 mi East 3.5 mph - N/A   Overcast
4:56 AM 27.0 °F 19.5 °F 21.0 °F 78% 29.97 in 10.0 mi WNW 6.9 mph - 0.00 in   Overcast
5:56 AM 26.1 °F 16.2 °F 17.1 °F 69% 29.98 in 10.0 mi WNW 10.4 mph - N/A   Mostly Cloudy
6:56 AM 24.8 °F 20.5 °F 15.8 °F 69% 29.93 in 10.0 mi NNW 3.5 mph - N/A   Scattered Clouds
7:56 AM 21.0 °F - 16.0 °F 81% 30.00 in 10.0 mi Calm Calm - N/A   Partly Cloudy
8:56 AM 27.0 °F 23.0 °F 21.0 °F 78% 30.01 in 10.0 mi SE 3.5 mph - N/A   Scattered Clouds
9:56 AM 30.2 °F 24.3 °F 19.4 °F 64% 29.94 in 10.0 mi SSE 5.8 mph - N/A   Overcast
10:56 AM 30.9 °F 25.2 °F 16.0 °F 54% 29.99 in 10.0 mi Variable 5.8 mph - N/A   Overcast
11:56 AM 32.0 °F 26.4 °F 14.0 °F 48% 29.96 in 10.0 mi WSW 5.8 mph - 0.00 in   Mostly Cloudy
12:56 PM 32.0 °F 26.4 °F 14.0 °F 48% 29.95 in 10.0 mi West 5.8 mph - N/A   Overcast
1:56 PM 34.0 °F 24.2 °F 10.9 °F 38% 29.93 in 10.0 mi West 15.0 mph 23.0 mph N/A   Partly Cloudy
2:56 PM 33.1 °F 22.2 °F 10.9 °F 40% 29.95 in 10.0 mi West 17.3 mph - N/A   Clear
3:56 PM 30.0 °F 19.5 °F 12.0 °F 47% 29.97 in 10.0 mi WNW 13.8 mph - N/A   Clear
4:56 PM 27.0 °F 19.5 °F 14.0 °F 58% 29.97 in 10.0 mi NW 6.9 mph - N/A   Partly Cloudy
5:56 PM 25.0 °F 19.3 °F 16.0 °F 69% 29.99 in 10.0 mi WNW 4.6 mph - N/A   Mostly Cloudy
6:56 PM 23.0 °F - 16.0 °F 74% 30.00 in 10.0 mi Calm Calm - N/A   Overcast
7:56 PM 21.0 °F 16.2 °F 15.1 °F 78% 30.02 in 10.0 mi SE 3.5 mph - N/A   Overcast
8:56 PM 21.0 °F - 15.1 °F 78% 30.01 in 10.0 mi Calm Calm - N/A   Mostly Cloudy
9:56 PM 19.9 °F 14.9 °F 15.1 °F 81% 30.03 in 10.0 mi SW 3.5 mph - N/A   Mostly Cloudy
10:56 PM 19.9 °F 14.9 °F 14.0 °F 78% 30.04 in 10.0 mi WSW 3.5 mph - N/A   Mostly Cloudy
11:56 PM 16.0 °F - 10.9 °F 81% 30.06 in 10.0 mi Calm Calm - N/A   Mostly Cloudy